PACCTY-2 Weather Reports


Display with metric or nautical units.
time (UTC)temp
F
wind
direction
speed
MPH
gust
MPH
rain 1hr
in
rain 24hr
in
rain mn
in
humidity
%
barometer
mb
20260902031627 61 177 4.0 10.0 0.00 0.00 0.00 90 1010.8
20260902031126 61 187 7.0 9.0 0.00 0.00 0.00 90 1010.8
20260902025623 61 191 7.0 11.0 0.00 0.00 0.00 89 1010.9
20260902025122 62 168 8.0 12.0 0.00 0.00 0.00 89 1010.9
20260902024120 62 210 8.0 12.0 0.00 0.00 0.00 89 1010.9
20260902023619 62 187 8.0 12.0 0.00 0.00 0.00 89 1010.9
20260902023118 62 197 9.0 12.0 0.00 0.00 0.00 89 1010.9
20260902022617 62 200 9.0 18.0 0.00 0.00 0.00 89 1010.8
20260902021615 62 196 14.0 18.0 0.00 0.00 0.00 89 1010.8
20260902021114 62 207 11.0 17.0 0.00 0.00 0.00 88 1010.8
20260902020613 63 203 11.0 17.0 0.00 0.00 0.00 88 1010.8
20260902020112 63 201 12.0 17.0 0.00 0.00 0.00 88 1010.8
20260902014609 63 187 9.0 12.0 0.00 0.00 0.00 1010.7
20260902014108 63 203 9.0 16.0 0.00 0.00 0.00 1010.7
20260902013607 63 198 11.0 16.0 0.00 0.00 0.00 1010.7
20260902013106 63 205 11.0 16.0 0.00 0.00 0.00 1010.7
20260902012605 63 204 11.0 15.0 0.00 0.00 0.00 1010.7
20260902012104 63 196 11.0 15.0 0.00 0.00 0.00 1010.8
20260902010601 63 187 11.0 17.0 0.00 0.00 0.00 1010.7
20260902005559 63 187 13.0 19.0 0.00 0.00 0.00 1010.6
20260902005058 63 198 13.0 19.0 0.00 0.00 0.00 1010.6
20260902004557 63 201 13.0 21.0 0.00 0.00 0.00 87 1010.6
20260902004056 63 204 14.0 21.0 0.00 0.00 0.00 87 1010.6
20260902003054 63 191 14.0 21.0 0.00 0.00 0.00 86 1010.7
20260902001551 64 196 15.0 22.0 0.00 0.00 0.00 1010.9
20260901235547 65 207 12.0 19.0 0.00 0.00 0.00 1010.9
20260901235046 65 180 13.0 19.0 0.00 0.00 0.00 1010.9
20260901234045 65 198 13.0 16.0 0.00 0.00 0.00 1011.0
20260901233042 65 210 8.0 14.0 0.00 0.00 0.00 1011.2
20260901232542 65 203 9.0 14.0 0.00 0.00 0.00 1011.2
20260901232040 65 197 11.0 16.0 0.00 0.00 0.00 1011.2
20260901231539 66 197 11.0 16.0 0.00 0.00 0.00 1011.1
20260901230537 66 198 10.0 16.0 0.00 0.00 0.00 1011.2
20260901230036 66 200 10.0 14.0 0.00 0.00 0.00 1011.1
20260901224533 66 193 9.0 15.0 0.00 0.00 0.00 1011.3
20260901224032 66 180 9.0 14.0 0.00 0.00 0.00 1011.3
20260901223531 66 165 8.0 14.0 0.00 0.00 0.00 1011.2
20260901223030 66 183 9.0 14.0 0.00 0.00 0.00 1011.3
20260901222529 65 201 9.0 14.0 0.00 0.00 0.00 1011.3
20260901221527 65 194 10.0 14.0 0.00 0.00 0.00 1011.3
20260901220525 65 176 10.0 14.0 0.00 0.00 0.00 1011.3
20260901220025 65 179 9.0 15.0 0.00 0.00 0.00 1011.3
20260901215523 65 187 10.0 15.0 0.00 0.00 0.00 1011.3
20260901215022 65 179 9.0 15.0 0.00 0.00 0.00 1011.3
20260901213519 65 179 10.0 16.0 0.00 0.00 0.00 1011.2
20260901213018 65 175 11.0 14.0 0.00 0.00 0.00 1011.2
20260901212016 65 190 10.0 15.0 0.00 0.00 0.00 1011.1
20260901211014 64 214 10.0 14.0 0.00 0.00 0.00 1011.2
20260901205511 64 161 8.0 13.0 0.00 0.00 0.00 1011.1
20260901205010 65 182 7.0 13.0 0.00 0.00 0.00 1011.2
20260901204509 64 183 9.0 12.0 0.00 0.00 0.00 1011.2
20260901204008 65 180 8.0 12.0 0.00 0.00 0.00 1011.2
20260901203507 64 210 7.0 10.0 0.00 0.00 0.00 1011.2
20260901203006 64 190 7.0 14.0 0.00 0.00 0.00 1011.3
20260901202505 64 204 8.0 14.0 0.00 0.00 0.00 1011.2
20260901202004 64 208 8.0 14.0 0.00 0.00 0.00 1011.3
20260901201503 63 203 9.0 12.0 0.00 0.00 0.00 1011.3
20260901201002 63 191 9.0 12.0 0.00 0.00 0.00 1011.3
20260901200501 63 196 8.0 11.0 0.00 0.00 0.00 1011.4
20260901195459 63 180 8.0 11.0 0.00 0.00 0.00 1011.4
20260901194958 63 189 7.0 10.0 0.00 0.00 0.00 1011.4
20260901193956 62 190 7.0 13.0 0.00 0.00 0.00 93 1011.4
20260901193455 62 203 8.0 13.0 0.00 0.00 0.00 93 1011.5
20260901192453 62 205 9.0 16.0 0.00 0.00 0.00 93 1011.5
20260901191952 62 200 10.0 16.0 0.00 0.00 0.00 93 1011.5
20260901191451 62 204 10.0 16.0 0.00 0.00 0.00 93 1011.4
20260901190950 62 201 11.0 16.0 0.00 0.00 0.00 93 1011.3
20260901190449 62 201 12.0 16.0 0.00 0.00 0.00 93 1011.3
20260901185948 62 191 12.0 15.0 0.00 0.00 0.00 93 1011.3
20260901185447 62 203 12.0 16.0 0.00 0.00 0.00 93 1011.3
20260901184946 61 193 10.0 16.0 0.00 0.00 0.00 93 1011.4
20260901184445 61 183 12.0 16.0 0.00 0.00 0.00 93 1011.3
20260901183944 62 193 11.0 17.0 0.00 0.00 0.00 93 1011.3
20260901182943 62 198 11.0 17.0 0.00 0.00 0.00 93 1011.2
20260901182441 62 193 10.0 14.0 0.00 0.00 0.00 93 1011.2
20260901180938 62 198 9.0 15.0 0.00 0.00 0.00 93 1011.3
20260901175936 63 165 10.0 14.0 0.00 0.00 0.00 93 1011.3
20260901175435 63 215 11.0 14.0 0.00 0.00 0.00 93 1011.3
20260901174934 63 218 9.0 14.0 0.00 0.00 0.00 93 1011.3
20260901173932 63 196 9.0 11.0 0.00 0.00 0.00 93 1011.2
20260901173431 63 198 8.0 11.0 0.00 0.00 0.00 93 1011.1
20260901172930 63 211 8.0 10.0 0.00 0.00 0.00 93 1011.1
20260901172429 63 211 6.0 9.0 0.00 0.00 0.00 93 1011.0
20260901171928 63 203 7.0 8.0 0.00 0.00 0.00 94 1011.0
20260901171427 63 194 7.0 7.0 0.00 0.00 0.00 94 1010.9
20260901170926 62 187 6.0 7.0 0.00 0.00 0.00 94 1010.9
20260901170425 62 205 4.0 9.0 0.00 0.00 0.00 93 1011.0
20260901164421 62 182 7.0 10.0 0.00 0.00 0.00 93 1011.0
20260901163920 62 203 5.0 10.0 0.00 0.00 0.00 93 1010.9
20260901163418 62 212 6.0 9.0 0.00 0.00 0.00 93 1011.0
20260901162416 62 196 7.0 11.0 0.00 0.00 0.00 93 1011.1
20260901161916 62 203 8.0 11.0 0.00 0.00 0.00 93 1011.2
20260901161414 62 196 7.0 11.0 0.00 0.00 0.00 93 1011.2
20260901160504 62 225 7.0 9.0 0.00 0.00 0.00 93 1011.2
20260901160412 62 225 7.0 9.0 0.00 0.00 0.00 93 1011.2
20260901155411 62 179 0.0 2.0 0.00 0.00 0.00 93 1011.0
20260901154911 61 131 1.0 5.0 0.00 0.00 0.00 93 1011.0
20260901154409 61 127 0.0 5.0 0.00 0.00 0.00 93 1011.1
20260901153908 61 130 2.0 5.0 0.00 0.00 0.00 93 1011.0
20260901152905 61 134 3.0 4.0 0.00 0.00 0.00 93 1011.0
20260901152404 60 130 2.0 3.0 0.00 0.00 0.00 93 1011.1
20260901151402 60 198 0.0 2.0 0.00 0.00 0.00 93 1011.1
20260901150902 60 247 1.0 2.0 0.00 0.00 0.00 93 1011.0
20260901150400 60 260 0.0 2.0 0.00 0.00 0.00 93 1011.1
20260901144356 60 0 0.0 0.0 0.00 0.00 0.00 93 1010.9
20260901143855 60 0 0.0 0.0 0.00 0.00 0.00 93 1010.9
20260901143355 60 0 0.0 0.0 0.00 0.00 0.00 93 1010.9
20260901142854 60 0 0.0 0.0 0.00 0.00 0.00 93 1010.9
20260901142352 60 0 0.0 0.0 0.00 0.00 0.00 1010.8
20260901141851 60 0 0.0 3.0 0.00 0.00 0.00 93 1010.7
20260901141350 60 239 0.0 3.0 0.00 0.00 0.00 93 1010.6
20260901140348 60 0 2.0 2.0 0.00 0.00 0.00 93 1010.6
20260901135847 60 222 0.0 1.0 0.00 0.00 0.00 93 1010.6
20260901135346 60 218 0.0 1.0 0.00 0.00 0.00 93 1010.5
20260901133844 60 243 0.0 8.0 0.00 0.00 0.00 93 1010.5
20260901133342 60 259 3.0 7.0 0.00 0.00 0.00 93 1010.4
20260901132842 60 145 1.0 1.0 0.00 0.00 0.00 93 1010.4
20260901132340 60 128 0.0 1.0 0.00 0.00 0.00 93 1010.4
20260901130837 60 131 1.0 3.0 0.00 0.00 0.00 93 1010.3
20260901130336 60 130 1.0 4.0 0.00 0.00 0.00 93 1010.3
20260901124834 60 119 2.0 3.0 0.00 0.00 0.00 93 1010.3
20260901124334 60 121 1.0 3.0 0.00 0.00 0.00 93 1010.4
20260901123331 60 120 2.0 2.0 0.00 0.00 0.00 93 1010.4
20260901122830 60 0 2.0 2.0 0.00 0.00 0.00 93 1010.4
20260901122328 60 0 0.0 1.0 0.00 0.00 0.00 93 1010.4
20260901121828 60 169 0.0 1.0 0.00 0.00 0.00 93 1010.4
20260901120825 60 182 2.0 3.0 0.00 0.00 0.00 93 1010.5
20260901120324 60 161 1.0 3.0 0.00 0.00 0.00 93 1010.5
20260901115322 60 130 1.0 2.0 0.00 0.00 0.00 92 1010.4
20260901114320 60 158 0.0 5.0 0.00 0.00 0.00 92 1010.6
20260901113819 60 169 0.0 5.0 0.00 0.00 0.00 92 1010.5
20260901113318 60 187 3.0 5.0 0.00 0.00 0.00 92 1010.6
20260901112316 60 180 3.0 10.0 0.00 0.00 0.00 92 1010.6
20260901111314 60 189 4.0 8.0 0.00 0.00 0.00 92 1010.6
20260901110813 60 198 6.0 7.0 0.00 0.00 0.00 92 1010.5
20260901110314 60 179 4.0 7.0 0.00 0.00 0.00 92 1010.6
20260901105811 60 193 4.0 7.0 0.00 0.00 0.00 92 1010.6
20260901105310 60 179 4.0 7.0 0.00 0.00 0.00 92 1010.6
20260901103807 60 203 4.0 9.0 0.00 0.00 0.00 92 1010.6
20260901103306 60 194 6.0 11.0 0.00 0.00 0.00 92 1010.6
20260901102805 60 182 6.0 11.0 0.00 0.00 0.00 92 1010.6
20260901102306 60 186 7.0 11.0 0.00 0.00 0.00 92 1010.6
20260901101803 60 198 6.0 10.0 0.00 0.00 0.00 92 1010.5
20260901100801 60 208 6.0 8.0 0.00 0.00 0.00 92 1010.5
20260901100301 60 210 4.0 6.0 0.00 0.00 0.00 92 1010.5
20260901095258 60 189 4.0 10.0 0.00 0.00 0.00 92 1010.6
20260901093755 60 211 6.0 8.0 0.00 0.00 0.00 92 1010.5
20260901093254 60 186 5.0 8.0 0.00 0.00 0.00 91 1010.5
20260901092753 60 180 4.0 8.0 0.00 0.00 0.00 91 1010.5
20260901092252 60 189 6.0 9.0 0.00 0.00 0.00 91 1010.6
20260901091751 60 175 5.0 9.0 0.00 0.00 0.00 91 1010.6
20260901091250 60 193 4.0 9.0 0.00 0.00 0.00 91 1010.6
20260901090749 60 205 5.0 8.0 0.00 0.00 0.00 91 1010.6
20260901090248 60 179 6.0 8.0 0.00 0.00 0.00 91 1010.6
20260901085747 60 180 4.0 7.0 0.00 0.00 0.00 91 1010.6
20260901084745 60 182 5.0 9.0 0.00 0.00 0.00 91 1010.6
20260901084244 60 183 5.0 9.0 0.00 0.00 0.00 91 1010.6
20260901083744 60 201 6.0 9.0 0.00 0.00 0.00 91 1010.7
20260901082742 60 207 5.0 8.0 0.00 0.00 0.00 91 1010.7
20260901082243 60 215 6.0 8.0 0.00 0.00 0.00 91 1010.7
20260901081739 60 169 3.0 7.0 0.00 0.00 0.00 91 1010.7
20260901075735 60 177 2.0 4.0 0.00 0.00 0.00 91 1010.7
20260901074233 60 173 3.0 8.0 0.00 0.00 0.00 90 1010.7
20260901072729 61 176 5.0 7.0 0.00 0.00 0.00 90 1010.5
20260901071226 61 203 4.0 8.0 0.00 0.00 0.00 90 1010.6
20260901070725 61 214 6.0 6.0 0.00 0.00 0.00 90 1010.5
20260901070224 61 250 4.0 4.0 0.00 0.00 0.00 90 1010.5
20260901065222 61 194 0.0 2.0 0.00 0.00 0.00 90 1010.5
20260901064721 61 187 0.0 2.0 0.00 0.00 0.00 90 1010.4
20260901063218 61 212 0.0 2.0 0.00 0.00 0.00 90 1010.4
20260901062216 61 187 1.0 3.0 0.00 0.00 0.00 90 1010.5
20260901060212 61 173 0.0 2.0 0.00 0.00 0.00 90 1010.4
20260901055711 61 203 0.0 2.0 0.00 0.00 0.00 90 1010.5
20260901053707 61 240 0.0 1.0 0.00 0.00 0.00 90 1010.4
20260901053207 61 243 0.0 1.0 0.00 0.00 0.00 90 1010.4
20260901052705 61 229 0.0 3.0 0.00 0.00 0.00 90 1010.5
20260901045158 61 320 0.0 3.0 0.00 0.00 0.00 90 1010.3
20260901043154 61 0 0.0 0.0 0.00 0.00 0.00 90 1010.5
20260901042653 61 273 0.0 2.0 0.00 0.00 0.00 90 1010.5
20260901041651 61 327 0.0 2.0 0.00 0.00 0.00 90 1010.4
20260901041150 61 299 0.0 2.0 0.00 0.00 0.00 90 1010.4
20260901040649 61 317 1.0 2.0 0.00 0.00 0.00 90 1010.4
20260901040148 61 281 1.0 2.0 0.00 0.00 0.00 89 1010.4
20260901035146 62 257 0.0 2.0 0.00 0.00 0.00 89 1010.3
20260901033643 62 316 0.0 3.0 0.00 0.00 0.00 89 1009.9
20260901033142 62 271 0.0 3.0 0.00 0.00 0.00 89 1009.9
20260901032641 62 0 0.0 2.0 0.00 0.00 0.00 89 1009.9
20260901032140 62 247 0.0 2.0 0.00 0.00 0.00 89 1009.9
20260901031639 62 232 1.0 5.0 0.00 0.00 0.00 89 1009.9